TimePST,TemperatureF,Dew PointF,Humidity,Sea Level PressureIn,VisibilityMPH,Wind Direction,Wind SpeedMPH,Gust SpeedMPH,PrecipitationIn,Events,Conditions,WindDirDegrees,DateUTC
12:15 AM,44.6,44.6,100,30.11,3.0,SSW,23.0,34.5,0.03,Rain,Rain,200,2013-02-25 08:15:00
12:35 AM,44.6,44.6,100,-9999,2.5,SSW,25.3,31.1,0.09,Rain,Rain,200,2013-02-25 08:35:00
12:55 AM,46.4,44.6,93,30.11,2.0,SW,23.0,28.8,0.15,Rain,Heavy Rain,220,2013-02-25 08:55:00
1:15 AM,44.6,44.6,100,30.14,5.0,West,15.0,23.0,N/A,Rain,Light Rain,280,2013-02-25 09:15:00
1:35 AM,44.6,42.8,93,30.16,7.0,West,16.1,27.6,N/A,,Overcast,280,2013-02-25 09:35:00
1:55 AM,44.6,41.0,87,30.17,7.0,WNW,11.5,16.1,N/A,,Overcast,290,2013-02-25 09:55:00
2:15 AM,44.6,41.0,87,30.18,7.0,West,13.8,18.4,N/A,,Overcast,280,2013-02-25 10:15:00
2:35 AM,44.6,41.0,87,30.19,7.0,West,15.0,24.2,N/A,,Overcast,280,2013-02-25 10:35:00
2:55 AM,44.6,41.0,87,30.19,7.0,WNW,12.7,28.8,N/A,,Light Drizzle,300,2013-02-25 10:55:00
3:15 AM,44.6,39.2,81,30.20,7.0,West,18.4,26.5,N/A,,Overcast,280,2013-02-25 11:15:00
3:35 AM,44.6,39.2,81,30.21,7.0,West,12.7,21.9,N/A,,Mostly Cloudy,270,2013-02-25 11:35:00
3:55 AM,44.6,39.2,81,30.22,7.0,West,12.7,21.9,N/A,,Mostly Cloudy,270,2013-02-25 11:55:00
4:15 AM,42.8,39.2,87,30.22,7.0,West,12.7,19.6,0.01,,Mostly Cloudy,280,2013-02-25 12:15:00
4:35 AM,44.6,39.2,81,30.23,7.0,West,9.2,17.3,0.01,Rain,Light Rain,270,2013-02-25 12:35:00
4:55 AM,42.8,37.4,81,30.24,7.0,West,11.5,31.1,0.02,,Overcast,270,2013-02-25 12:55:00
5:15 AM,44.6,37.4,76,30.25,7.0,West,17.3,-,N/A,,Mostly Cloudy,280,2013-02-25 13:15:00
5:35 AM,44.6,37.4,76,30.25,10.0,West,13.8,19.6,N/A,,Mostly Cloudy,270,2013-02-25 13:35:00
5:55 AM,44.6,37.4,76,30.26,7.0,West,9.2,20.7,N/A,,Scattered Clouds,270,2013-02-25 13:55:00
6:15 AM,42.8,37.4,81,30.27,7.0,West,12.7,24.2,N/A,Rain,Rain,280,2013-02-25 14:15:00
6:35 AM,44.6,37.4,76,30.27,7.0,West,11.5,20.7,N/A,,Overcast,270,2013-02-25 14:35:00
6:55 AM,44.6,37.4,76,30.28,7.0,West,17.3,23.0,N/A,,Overcast,270,2013-02-25 14:55:00
7:15 AM,42.8,37.4,81,30.29,7.0,West,15.0,24.2,N/A,,Light Drizzle,280,2013-02-25 15:15:00
7:35 AM,42.8,37.4,81,30.29,7.0,West,11.5,20.7,N/A,,Overcast,260,2013-02-25 15:35:00
7:55 AM,42.8,37.4,81,30.31,7.0,WNW,10.4,21.9,N/A,,Overcast,300,2013-02-25 15:55:00
8:15 AM,42.8,37.4,81,30.30,7.0,West,3.5,-,N/A,,Overcast,280,2013-02-25 16:15:00
8:35 AM,42.8,37.4,81,30.31,5.0,West,10.4,-,N/A,,Haze,270,2013-02-25 16:35:00
8:55 AM,44.6,37.4,76,30.32,5.0,West,12.7,-,N/A,,Haze,280,2013-02-25 16:55:00
9:15 AM,42.8,37.4,81,-9999,3.0,West,10.4,-,N/A,Rain,Light Rain,280,2013-02-25 17:15:00
9:35 AM,44.6,37.4,76,30.33,4.0,West,15.0,19.6,N/A,,Haze,280,2013-02-25 17:35:00
9:55 AM,44.6,37.4,76,30.34,5.0,WNW,13.8,20.7,N/A,,Haze,290,2013-02-25 17:55:00
10:15 AM,46.4,37.4,71,30.34,5.0,West,11.5,20.7,N/A,,Haze,280,2013-02-25 18:15:00
10:35 AM,44.6,35.6,71,30.34,7.0,West,13.8,20.7,N/A,,Mostly Cloudy,280,2013-02-25 18:35:00
10:55 AM,44.6,35.6,71,30.35,5.0,West,11.5,17.3,N/A,,Haze,270,2013-02-25 18:55:00
11:15 AM,44.6,35.6,71,-9999,5.0,WNW,15.0,19.6,N/A,Rain,Light Rain,290,2013-02-25 19:15:00
11:35 AM,44.6,37.4,76,30.36,5.0,WNW,8.1,-,N/A,,Haze,290,2013-02-25 19:35:00
11:55 AM,44.6,35.6,71,30.36,7.0,WNW,10.4,16.1,N/A,,Overcast,290,2013-02-25 19:55:00
12:15 PM,46.4,35.6,66,30.37,7.0,West,9.2,-,N/A,,Scattered Clouds,280,2013-02-25 20:15:00
12:35 PM,48.2,35.6,62,30.37,7.0,WNW,11.5,18.4,N/A,,Scattered Clouds,290,2013-02-25 20:35:00
12:55 PM,46.4,35.6,66,30.38,7.0,West,11.5,16.1,N/A,,Mostly Cloudy,270,2013-02-25 20:55:00
1:15 PM,46.4,35.6,66,30.37,5.0,West,9.2,-,N/A,,Haze,270,2013-02-25 21:15:00
1:35 PM,46.4,35.6,66,30.37,5.0,NW,11.5,16.1,N/A,,Haze,310,2013-02-25 21:35:00
1:55 PM,41.0,35.6,81,30.38,2.5,WNW,13.8,24.2,0.08,Rain,Rain,290,2013-02-25 21:55:00
2:15 PM,44.6,41.0,87,30.37,5.0,West,6.9,-,N/A,,Overcast,280,2013-02-25 22:15:00
2:35 PM,42.8,37.4,81,30.38,5.0,West,15.0,19.6,N/A,Rain,Light Rain,260,2013-02-25 22:35:00
2:55 PM,44.6,39.2,81,30.37,5.0,WSW,9.2,-,N/A,,Haze,250,2013-02-25 22:55:00
3:15 PM,44.6,37.4,76,30.37,7.0,West,9.2,16.1,N/A,,Mostly Cloudy,280,2013-02-25 23:15:00
3:35 PM,46.4,39.2,76,30.38,7.0,West,10.4,17.3,N/A,,Overcast,280,2013-02-25 23:35:00
3:55 PM,44.6,39.2,81,30.38,7.0,WNW,6.9,-,N/A,,Mostly Cloudy,290,2013-02-25 23:55:00
4:15 PM,46.4,37.4,71,30.38,7.0,WNW,10.4,-,N/A,,Mostly Cloudy,290,2013-02-26 00:15:00
4:35 PM,44.6,37.4,76,30.39,7.0,NW,13.8,21.9,N/A,,Overcast,320,2013-02-26 00:35:00
4:55 PM,44.6,37.4,76,30.39,7.0,NW,6.9,-,N/A,,Mostly Cloudy,310,2013-02-26 00:55:00
5:15 PM,44.6,37.4,76,30.38,5.0,West,5.8,-,N/A,,Haze,280,2013-02-26 01:15:00
5:35 PM,44.6,37.4,76,30.39,5.0,WNW,8.1,-,N/A,,Haze,300,2013-02-26 01:35:00
5:55 PM,44.6,37.4,76,30.39,7.0,NW,8.1,-,N/A,,Overcast,310,2013-02-26 01:55:00
6:15 PM,44.6,37.4,76,30.40,7.0,WNW,12.7,-,0.01,,Mostly Cloudy,300,2013-02-26 02:15:00
6:35 PM,44.6,35.6,71,30.40,7.0,WNW,10.4,-,0.01,,Scattered Clouds,300,2013-02-26 02:35:00
6:55 PM,44.6,37.4,76,30.40,7.0,NW,9.2,-,0.01,,Scattered Clouds,320,2013-02-26 02:55:00
7:15 PM,42.8,37.4,81,30.41,7.0,NW,8.1,-,N/A,,Mostly Cloudy,310,2013-02-26 03:15:00
7:55 PM,44.6,35.6,71,-9999,7.0,NW,6.9,-,N/A,,Overcast,320,2013-02-26 03:55:00
8:15 PM,42.8,35.6,76,30.42,7.0,NW,5.8,-,N/A,,Overcast,310,2013-02-26 04:15:00
8:35 PM,42.8,35.6,76,30.42,7.0,WNW,5.8,-,N/A,,Scattered Clouds,300,2013-02-26 04:35:00
8:55 PM,42.8,35.6,76,30.42,7.0,WNW,6.9,-,N/A,,Scattered Clouds,290,2013-02-26 04:55:00
9:15 PM,44.6,35.6,71,30.42,7.0,WNW,5.8,-,N/A,,Mostly Cloudy,290,2013-02-26 05:15:00
9:35 PM,42.8,35.6,76,30.42,7.0,NW,10.4,-,N/A,,Mostly Cloudy,310,2013-02-26 05:35:00
9:55 PM,42.8,33.8,70,30.42,7.0,NW,4.6,-,N/A,,Overcast,320,2013-02-26 05:55:00
10:15 PM,42.8,33.8,70,30.42,7.0,WNW,3.5,-,N/A,,Scattered Clouds,290,2013-02-26 06:15:00
10:35 PM,39.2,32.0,75,30.42,7.0,Calm,Calm,-,N/A,,Clear,0,2013-02-26 06:35:00
10:55 PM,39.2,35.6,87,30.43,10.0,East,5.8,-,N/A,,Mostly Cloudy,100,2013-02-26 06:55:00
11:15 PM,41.0,35.6,81,30.43,10.0,ESE,6.9,-,N/A,,Overcast,110,2013-02-26 07:15:00
11:35 PM,41.0,35.6,81,30.43,10.0,SE,4.6,-,N/A,,Overcast,130,2013-02-26 07:35:00
11:55 PM,39.2,35.6,87,30.43,10.0,Calm,Calm,-,N/A,,Mostly Cloudy,0,2013-02-26 07:55:00